JLY1207 SBSP-SBMG

Flight info

Callsign JLY1207
Flight time 0h 59m
Altitude 36000
Route ASETA UM415 EGEVA UZ58 LON
Aircraft B738/M-SDFGIKRWY/LB1

Departure

Time 2026-05-04 22:08
Airport Congonhas–Deputado Freitas Nobre Airport (SBSP)

Arrival

Time 2026-05-04 23:07
Airport Regional de Maringá - Sílvio Name Júnior Airport (SBMG)
Time Latitude Longitude Altitude Speed Heading
2026-05-04 21:37 -23.62886 -46.65705 2661 ft 0 kts 328°
2026-05-04 21:59 -23.62889 -46.65704 2662 ft 1 kts 328°
2026-05-04 22:00 -23.62902 -46.65696 2662 ft 2 kts 349°
2026-05-04 22:00 -23.62916 -46.65696 2662 ft 2 kts 13°
2026-05-04 22:00 -23.62929 -46.65702 2662 ft 1 kts 38°
2026-05-04 22:00 -23.62936 -46.65710 2662 ft 0 kts 55°
2026-05-04 22:01 -23.62940 -46.65716 2661 ft 0 kts 58°
2026-05-04 22:03 -23.62938 -46.65713 2661 ft 1 kts 58°
2026-05-04 22:03 -23.62930 -46.65700 2662 ft 3 kts 58°
2026-05-04 22:03 -23.62916 -46.65675 2663 ft 5 kts 59°
2026-05-04 22:04 -23.62890 -46.65631 2665 ft 7 kts 46°
2026-05-04 22:04 -23.62827 -46.65642 2664 ft 13 kts 327°
2026-05-04 22:04 -23.62746 -46.65700 2660 ft 15 kts 327°
2026-05-04 22:04 -23.62646 -46.65770 2656 ft 16 kts 328°
2026-05-04 22:05 -23.62569 -46.65823 2652 ft 11 kts 327°
2026-05-04 22:05 -23.62498 -46.65873 2649 ft 13 kts 327°
2026-05-04 22:05 -23.62421 -46.65926 2644 ft 14 kts 327°
2026-05-04 22:05 -23.62333 -46.65987 2638 ft 14 kts 328°
2026-05-04 22:06 -23.62256 -46.66037 2633 ft 11 kts 332°
2026-05-04 22:06 -23.62191 -46.66076 2630 ft 10 kts 329°
2026-05-04 22:06 -23.62136 -46.66112 2625 ft 10 kts 329°
2026-05-04 22:06 -23.62063 -46.66134 2618 ft 10 kts 17°
2026-05-04 22:07 -23.62040 -46.66090 2619 ft 5 kts 112°
2026-05-04 22:07 -23.62053 -46.66073 2620 ft 0 kts 144°
2026-05-04 22:07 -23.62065 -46.66064 2621 ft 14 kts 146°
2026-05-04 22:07 -23.62365 -46.65858 2643 ft 84 kts 147°
2026-05-04 22:08 -23.63030 -46.65396 2672 ft 141 kts 148°
2026-05-04 22:08 -23.63888 -46.64806 3175 ft 142 kts 148°
2026-05-04 22:08 -23.64754 -46.64212 3599 ft 156 kts 150°
2026-05-04 22:08 -23.65782 -46.63671 4042 ft 169 kts 164°
2026-05-04 22:09 -23.66969 -46.63561 4483 ft 177 kts 191°
2026-05-04 22:09 -23.68071 -46.64197 4798 ft 190 kts 232°
2026-05-04 22:09 -23.68580 -46.65573 5173 ft 203 kts 259°
2026-05-04 22:09 -23.69009 -46.67057 5735 ft 211 kts 251°
2026-05-04 22:10 -23.69446 -46.68624 6004 ft 228 kts 260°
2026-05-04 22:10 -23.69806 -46.70375 5971 ft 247 kts 258°
2026-05-04 22:10 -23.70261 -46.72268 5983 ft 266 kts 257°
2026-05-04 22:10 -23.70775 -46.74240 5973 ft 272 kts 256°
2026-05-04 22:11 -23.71306 -46.76222 5971 ft 272 kts 256°
2026-05-04 22:11 -23.71830 -46.78183 5973 ft 272 kts 256°
2026-05-04 22:11 -23.72362 -46.80184 5974 ft 274 kts 256°
2026-05-04 22:11 -23.72892 -46.82176 5980 ft 276 kts 256°
2026-05-04 22:12 -23.73432 -46.84222 6552 ft 285 kts 256°
2026-05-04 22:12 -23.73964 -46.86249 7593 ft 279 kts 256°
2026-05-04 22:12 -23.74489 -46.88267 8438 ft 279 kts 257°
2026-05-04 22:12 -23.74802 -46.90338 9187 ft 281 kts 270°
2026-05-04 22:13 -23.74434 -46.92417 9922 ft 284 kts 290°
2026-05-04 22:13 -23.73657 -46.94411 10584 ft 290 kts 293°
2026-05-04 22:13 -23.72800 -46.96462 11036 ft 304 kts 293°
2026-05-04 22:13 -23.71918 -46.98622 11449 ft 319 kts 292°
2026-05-04 22:14 -23.71024 -47.00878 11972 ft 330 kts 292°
2026-05-04 22:14 -23.70115 -47.03210 12636 ft 336 kts 292°
2026-05-04 22:14 -23.69214 -47.05539 13360 ft 340 kts 291°
2026-05-04 22:14 -23.68297 -47.07914 14130 ft 342 kts 291°
2026-05-04 22:15 -23.67366 -47.10322 14856 ft 346 kts 291°
2026-05-04 22:15 -23.66427 -47.12752 15582 ft 350 kts 291°
2026-05-04 22:15 -23.65483 -47.15188 16300 ft 353 kts 291°
2026-05-04 22:15 -23.64523 -47.17664 17001 ft 356 kts 290°
2026-05-04 22:16 -23.63556 -47.20155 17663 ft 360 kts 290°
2026-05-04 22:16 -23.62589 -47.22646 18320 ft 363 kts 290°
2026-05-04 22:16 -23.61594 -47.25208 18950 ft 368 kts 290°
2026-05-04 22:16 -23.60606 -47.27752 19603 ft 371 kts 290°
2026-05-04 22:17 -23.59593 -47.30356 20244 ft 374 kts 290°
2026-05-04 22:17 -23.58576 -47.32968 20859 ft 378 kts 289°
2026-05-04 22:17 -23.57546 -47.35615 21476 ft 381 kts 289°
2026-05-04 22:17 -23.56513 -47.38267 22055 ft 384 kts 289°
2026-05-04 22:18 -23.55463 -47.40960 22631 ft 388 kts 289°
2026-05-04 22:18 -23.54412 -47.43657 23191 ft 391 kts 289°
2026-05-04 22:18 -23.53354 -47.46367 23788 ft 393 kts 289°
2026-05-04 22:18 -23.52321 -47.49134 24363 ft 394 kts 286°
2026-05-04 22:19 -23.51436 -47.51937 24920 ft 395 kts 284°
2026-05-04 22:19 -23.50622 -47.54819 25497 ft 396 kts 282°
2026-05-04 22:19 -23.49853 -47.57674 26008 ft 398 kts 282°
2026-05-04 22:19 -23.49081 -47.60556 26557 ft 399 kts 282°
2026-05-04 22:20 -23.48299 -47.63448 27062 ft 401 kts 282°
2026-05-04 22:20 -23.47493 -47.66392 27547 ft 404 kts 283°
2026-05-04 22:20 -23.46691 -47.69292 28087 ft 405 kts 283°
2026-05-04 22:20 -23.45867 -47.72242 28569 ft 407 kts 283°
2026-05-04 22:21 -23.45013 -47.75170 29025 ft 410 kts 285°
2026-05-04 22:21 -23.43971 -47.78068 29487 ft 415 kts 289°
2026-05-04 22:21 -23.42732 -47.80918 29931 ft 418 kts 291°
2026-05-04 22:21 -23.41408 -47.83696 30372 ft 421 kts 292°
2026-05-04 22:22 -23.40000 -47.86538 30813 ft 423 kts 293°
2026-05-04 22:22 -23.38600 -47.89330 31204 ft 426 kts 293°
2026-05-04 22:22 -23.37171 -47.92177 31548 ft 429 kts 293°
2026-05-04 22:22 -23.35761 -47.94994 32136 ft 426 kts 293°
2026-05-04 22:23 -23.34355 -47.97808 32757 ft 422 kts 292°
2026-05-04 22:23 -23.32963 -48.00606 33278 ft 420 kts 292°
2026-05-04 22:23 -23.31599 -48.03356 33776 ft 418 kts 292°
2026-05-04 22:23 -23.30229 -48.06128 34291 ft 416 kts 292°
2026-05-04 22:24 -23.28916 -48.08944 34736 ft 412 kts 289°
2026-05-04 22:24 -23.27826 -48.11753 35223 ft 407 kts 285°
2026-05-04 22:24 -23.26848 -48.14656 35663 ft 404 kts 283°
2026-05-04 22:24 -23.25954 -48.17514 36078 ft 402 kts 282°
2026-05-04 22:25 -23.25070 -48.20425 36151 ft 405 kts 282°
2026-05-04 22:25 -23.23313 -48.26195 36152 ft 402 kts 283°
2026-05-04 22:26 -23.21512 -48.31913 36155 ft 401 kts 282°
2026-05-04 22:26 -23.19735 -48.37685 36157 ft 402 kts 282°
2026-05-04 22:27 -23.17954 -48.43418 36163 ft 402 kts 282°
2026-05-04 22:27 -23.16153 -48.49169 36170 ft 401 kts 283°
2026-05-04 22:28 -23.14656 -48.54897 36172 ft 394 kts 274°
2026-05-04 22:28 -23.14360 -48.60799 36176 ft 389 kts 264°
2026-05-04 22:29 -23.14770 -48.66605 36174 ft 387 kts 261°
2026-05-04 22:29 -23.15320 -48.72420 36177 ft 385 kts 261°
2026-05-04 22:30 -23.15858 -48.78231 36170 ft 386 kts 261°
2026-05-04 22:30 -23.16370 -48.84032 36162 ft 386 kts 261°
2026-05-04 22:31 -23.16865 -48.89809 36168 ft 385 kts 261°
2026-05-04 22:31 -23.17355 -48.95592 36168 ft 386 kts 261°
2026-05-04 22:32 -23.17843 -49.01391 36161 ft 386 kts 261°
2026-05-04 22:32 -23.18327 -49.07170 36150 ft 386 kts 261°
2026-05-04 22:33 -23.18813 -49.12994 36157 ft 387 kts 261°
2026-05-04 22:33 -23.19300 -49.18762 36153 ft 387 kts 261°
2026-05-04 22:34 -23.19830 -49.24576 36143 ft 385 kts 260°
2026-05-04 22:34 -23.20364 -49.30354 36138 ft 386 kts 260°
2026-05-04 22:35 -23.20895 -49.36153 36146 ft 386 kts 260°
2026-05-04 22:35 -23.21399 -49.41902 36162 ft 386 kts 261°
2026-05-04 22:36 -23.21837 -49.47724 36156 ft 386 kts 261°
2026-05-04 22:36 -23.22262 -49.53555 36159 ft 387 kts 261°
2026-05-04 22:37 -23.22689 -49.59372 36156 ft 386 kts 261°
2026-05-04 22:37 -23.23114 -49.65149 36161 ft 386 kts 262°
2026-05-04 22:38 -23.23542 -49.70957 36152 ft 386 kts 262°
2026-05-04 22:38 -23.23974 -49.76738 36146 ft 385 kts 261°
2026-05-04 22:39 -23.24434 -49.82539 36142 ft 385 kts 261°
2026-05-04 22:39 -23.24896 -49.88330 36149 ft 386 kts 261°
2026-05-04 22:40 -23.25354 -49.94120 36143 ft 386 kts 261°
2026-05-04 22:40 -23.25806 -49.99905 36142 ft 386 kts 261°
2026-05-04 22:41 -23.26259 -50.05741 36137 ft 385 kts 261°
2026-05-04 22:41 -23.26709 -50.11540 36133 ft 387 kts 261°
2026-05-04 22:42 -23.27155 -50.17338 36130 ft 386 kts 261°
2026-05-04 22:42 -23.27599 -50.23146 36131 ft 387 kts 261°
2026-05-04 22:43 -23.28043 -50.28973 36128 ft 387 kts 261°
2026-05-04 22:43 -23.28480 -50.34759 36130 ft 386 kts 261°
2026-05-04 22:44 -23.28919 -50.40596 36127 ft 386 kts 261°
2026-05-04 22:44 -23.29345 -50.46375 36125 ft 386 kts 261°
2026-05-04 22:45 -23.29765 -50.52169 35680 ft 380 kts 261°
2026-05-04 22:45 -23.30173 -50.57819 34526 ft 378 kts 261°
2026-05-04 22:45 -23.30380 -50.60668 33867 ft 378 kts 261°
2026-05-04 22:46 -23.30587 -50.63524 33195 ft 379 kts 262°
2026-05-04 22:46 -23.30793 -50.66363 32790 ft 384 kts 262°
2026-05-04 22:46 -23.31010 -50.69323 32325 ft 394 kts 262°
2026-05-04 22:46 -23.31222 -50.72257 31840 ft 392 kts 262°
2026-05-04 22:47 -23.31430 -50.75206 31349 ft 386 kts 262°
2026-05-04 22:47 -23.31632 -50.78080 30874 ft 381 kts 263°
2026-05-04 22:47 -23.31832 -50.80938 30394 ft 377 kts 263°
2026-05-04 22:47 -23.32027 -50.83729 29927 ft 372 kts 263°
2026-05-04 22:48 -23.32224 -50.86521 29453 ft 368 kts 263°
2026-05-04 22:48 -23.32419 -50.89275 28996 ft 372 kts 263°
2026-05-04 22:48 -23.32619 -50.92088 28512 ft 375 kts 263°
2026-05-04 22:48 -23.32819 -50.94929 28019 ft 371 kts 263°
2026-05-04 22:49 -23.33010 -50.97683 27542 ft 367 kts 263°
2026-05-04 22:49 -23.33199 -51.00409 27069 ft 362 kts 263°
2026-05-04 22:49 -23.33388 -51.03132 26594 ft 358 kts 263°
2026-05-04 22:49 -23.33577 -51.05834 26132 ft 363 kts 263°
2026-05-04 22:50 -23.33776 -51.08602 25651 ft 366 kts 262°
2026-05-04 22:50 -23.34082 -51.11322 25145 ft 362 kts 258°
2026-05-04 22:50 -23.34590 -51.13961 24796 ft 356 kts 255°
2026-05-04 22:50 -23.35209 -51.16583 24546 ft 359 kts 253°
2026-05-04 22:51 -23.35874 -51.19207 24290 ft 361 kts 252°
2026-05-04 22:51 -23.36545 -51.21809 24036 ft 361 kts 252°
2026-05-04 22:51 -23.37217 -51.24424 23779 ft 359 kts 252°
2026-05-04 22:51 -23.37885 -51.27044 23519 ft 358 kts 252°
2026-05-04 22:52 -23.38543 -51.29648 23270 ft 358 kts 252°
2026-05-04 22:52 -23.39198 -51.32256 23012 ft 358 kts 253°
2026-05-04 22:52 -23.39850 -51.34868 22756 ft 357 kts 252°
2026-05-04 22:52 -23.40495 -51.37454 22507 ft 356 kts 253°
2026-05-04 22:53 -23.41140 -51.40049 22253 ft 355 kts 253°
2026-05-04 22:53 -23.41779 -51.42628 21927 ft 350 kts 253°
2026-05-04 22:53 -23.42406 -51.45163 21465 ft 347 kts 253°
2026-05-04 22:53 -23.43026 -51.47666 20953 ft 345 kts 253°
2026-05-04 22:54 -23.43657 -51.50212 20409 ft 344 kts 253°
2026-05-04 22:54 -23.44272 -51.52697 19875 ft 343 kts 253°
2026-05-04 22:54 -23.44895 -51.55215 19262 ft 345 kts 253°
2026-05-04 22:54 -23.45512 -51.57708 18661 ft 346 kts 253°
2026-05-04 22:55 -23.46134 -51.60232 18141 ft 344 kts 253°
2026-05-04 22:55 -23.46748 -51.62725 17453 ft 342 kts 253°
2026-05-04 22:55 -23.47354 -51.65182 16685 ft 338 kts 254°
2026-05-04 22:55 -23.47957 -51.67632 15911 ft 335 kts 254°
2026-05-04 22:56 -23.48560 -51.70079 15124 ft 332 kts 255°
2026-05-04 22:56 -23.49144 -51.72453 14457 ft 327 kts 255°
2026-05-04 22:56 -23.49728 -51.74831 13947 ft 326 kts 255°
2026-05-04 22:56 -23.50314 -51.77217 13519 ft 322 kts 256°
2026-05-04 22:57 -23.50887 -51.79552 13048 ft 321 kts 256°
2026-05-04 22:57 -23.51463 -51.81903 12557 ft 320 kts 256°
2026-05-04 22:57 -23.52029 -51.84210 12097 ft 318 kts 256°
2026-05-04 22:57 -23.52597 -51.86530 11622 ft 317 kts 257°
2026-05-04 22:58 -23.53159 -51.88827 11395 ft 308 kts 256°
2026-05-04 22:58 -23.53704 -51.91051 11230 ft 297 kts 257°
2026-05-04 22:58 -23.54218 -51.93153 11105 ft 285 kts 257°
2026-05-04 22:58 -23.54726 -51.95234 10790 ft 282 kts 257°
2026-05-04 22:59 -23.55228 -51.97295 10404 ft 282 kts 257°
2026-05-04 22:59 -23.55726 -51.99345 10002 ft 282 kts 257°
2026-05-04 22:59 -23.56227 -52.01404 9616 ft 282 kts 257°
2026-05-04 22:59 -23.56729 -52.03464 9247 ft 281 kts 258°
2026-05-04 23:00 -23.57227 -52.05510 8885 ft 280 kts 258°
2026-05-04 23:00 -23.57723 -52.07545 8533 ft 278 kts 258°
2026-05-04 23:00 -23.58220 -52.09590 8165 ft 277 kts 258°
2026-05-04 23:00 -23.58708 -52.11597 7862 ft 273 kts 258°
2026-05-04 23:01 -23.59181 -52.13532 7755 ft 259 kts 258°
2026-05-04 23:01 -23.59633 -52.15385 7663 ft 246 kts 259°
2026-05-04 23:01 -23.60056 -52.17159 7466 ft 239 kts 261°
2026-05-04 23:01 -23.60228 -52.18922 7119 ft 230 kts 279°
2026-05-04 23:02 -23.59694 -52.20468 6760 ft 218 kts 310°
2026-05-04 23:02 -23.58557 -52.21495 6385 ft 211 kts 333°
2026-05-04 23:02 -23.57198 -52.22058 6040 ft 206 kts 350°
2026-05-04 23:02 -23.55787 -52.22030 5707 ft 204 kts
2026-05-04 23:03 -23.54395 -52.21750 5392 ft 200 kts
2026-05-04 23:03 -23.53047 -52.21474 5162 ft 193 kts 13°
2026-05-04 23:03 -23.51870 -52.20889 4990 ft 186 kts 40°
2026-05-04 23:03 -23.51236 -52.19660 4808 ft 188 kts 70°
2026-05-04 23:04 -23.50939 -52.18297 4571 ft 184 kts 73°
2026-05-04 23:04 -23.50657 -52.16938 4299 ft 182 kts 73°
2026-05-04 23:04 -23.50382 -52.15606 4062 ft 177 kts 73°
2026-05-04 23:04 -23.50124 -52.14333 3838 ft 172 kts 74°
2026-05-04 23:05 -23.49871 -52.13069 3613 ft 167 kts 74°
2026-05-04 23:05 -23.49632 -52.11866 3390 ft 159 kts 74°
2026-05-04 23:05 -23.49401 -52.10702 3191 ft 159 kts 75°
2026-05-04 23:05 -23.49170 -52.09541 3005 ft 150 kts 75°
2026-05-04 23:06 -23.48954 -52.08449 2786 ft 147 kts 75°
2026-05-04 23:06 -23.48741 -52.07371 2596 ft 146 kts 76°
2026-05-04 23:06 -23.48527 -52.06285 2400 ft 146 kts 76°
2026-05-04 23:06 -23.48312 -52.05203 2205 ft 146 kts 76°
2026-05-04 23:07 -23.48107 -52.04130 2003 ft 144 kts 77°
2026-05-04 23:07 -23.47893 -52.03071 1844 ft 143 kts 77°
2026-05-04 23:07 -23.47699 -52.02075 1782 ft 112 kts 78°
2026-05-04 23:07 -23.47589 -52.01517 1782 ft 46 kts 78°
2026-05-04 23:08 -23.47516 -52.01165 1782 ft 41 kts 77°
2026-05-04 23:08 -23.47468 -52.00916 1782 ft 29 kts 79°
2026-05-04 23:08 -23.47436 -52.00744 1782 ft 13 kts 79°
2026-05-04 23:08 -23.47440 -52.00656 1782 ft 11 kts 131°
2026-05-04 23:09 -23.47511 -52.00660 1782 ft 11 kts 207°
2026-05-04 23:09 -23.47576 -52.00703 1782 ft 10 kts 221°
2026-05-04 23:09 -23.47604 -52.00772 1782 ft 10 kts 254°
2026-05-04 23:09 -23.47620 -52.00845 1782 ft 10 kts 259°
2026-05-04 23:10 -23.47633 -52.00927 1782 ft 11 kts 260°
2026-05-04 23:10 -23.47652 -52.01014 1782 ft 11 kts 251°
2026-05-04 23:10 -23.47704 -52.01081 1782 ft 11 kts 215°
2026-05-04 23:10 -23.47771 -52.01130 1782 ft 11 kts 211°
2026-05-04 23:11 -23.47831 -52.01149 1782 ft 7 kts 170°
2026-05-04 23:11 -23.47876 -52.01139 1782 ft 3 kts 168°
2026-05-04 23:11 -23.47883 -52.01138 1782 ft 0 kts 168°
2026-05-04 23:11 -23.47888 -52.01136 1782 ft 0 kts 168°